Location: Albany
(35.0170°S, 117.8920°E)
Time: 23:07:40
(UTC+08:00)

S-56A Canister/Altair - Pass Details

Date: 18 June 2021
Orbit: 632 x 2501 km, 38.9° (Epoch: 24 July)

Event Time Altitude Azimuth Distance (km) Brightness Sun altitude
Rises 18:19:35 0° 275° (W) 6,129 13.8 -15.1°
Reaches altitude 10° 18:23:35 10° 273° (W) 5,168 13.0 -15.9°
Maximum altitude 18:38:58 77° 187° (S) 2,373 9.9 -18.9°
Enters shadow 18:47:13 28° 104° (ESE) 3,279 10.1 -20.5°
